Helicity
101 100 121 173 190 254 185 174 159 123 82 134 63 24 32 38 46 47 69 -2 56 84 62 21 63 87 81 68 73 67 73 76 72 62 63 63 63 60 51 48 39 25 38 40 34 50 71 80 71
145 157 210 222 274 256 164 247 197 205 109 63 47 11 11 2 95 79 99 -19 46 67 48 41 81 88 88 71 74 68 63 69 67 62 64 61 71 59 53 45 44 32 35 43 42 62 78 89 85
149 203 277 266 330 293 166 195 194 116 60 75 88 35 40 50 84 40 53 76 53 54 38 52 90 92 94 80 88 78 71 63 59 49 53 59 70 72 61 49 51 46 53 62 75 79 89 96 94
175 258 283 393 416 240 254 188 138 104 73 92 89 134 56 88 69 43 106 62 94 70 57 68 86 91 89 91 83 72 64 64 66 56 49 39 55 70 65 62 52 56 90 85 81 96 100 99 94
222 249 256 365 333 366 229 86 162 81 61 52 112 105 103 132 147 153 176 137 108 64 51 80 78 94 87 78 75 68 65 63 68 70 71 60 40 45 74 70 52 70 79 104 90 87 104 97 93
336 335 340 240 223 184 117 49 118 126 70 33 112 79 119 94 159 143 184 152 115 78 31 80 81 89 91 67 63 47 73 69 65 71 71 69 64 38 53 73 66 101 106 127 112 114 109 102 120
357 439 418 386 364 283 147 112 114 83 90 22 132 134 123 143 153 191 209 207 179 115 112 112 101 92 81 75 70 60 57 72 75 72 63 74 76 73 52 70 92 113 125 129 125 134 130 157 140
419 380 414 401 327 250 240 172 138 113 67 96 94 126 181 158 203 257 285 288 259 177 148 131 109 120 117 96 78 81 60 51 82 91 76 78 104 105 107 118 115 126 139 180 167 176 187 181 177
360 460 439 407 405 433 238 151 80 100 92 55 76 130 136 237 288 333 333 335 319 283 220 155 117 122 128 113 105 91 82 61 76 93 88 124 160 185 200 227 186 180 185 233 265 271 334 327 280
482 509 405 490 265 299 208 140 89 106 116 168 189 250 240 210 213 235 230 249 278 253 224 194 134 102 114 134 128 124 117 140 113 115 147 168 144 127 166 257 254 117 219 287 342 375 388 377 326
458 425 389 397 274 275 213 174 167 159 194 180 210 160 281 373 419 369 331 246 187 180 157 160 146 140 91 127 149 153 159 147 165 132 166 195 173 122 134 121 86 344 317 307 461 466 523 401 340
383 353 295 350 324 297 276 187 151 129 177 215 289 391 446 508 530 519 454 367 243 188 180 157 199 169 163 132 156 170 169 160 167 172 174 194 192 152 136 188 192 204 375 405 487 696 387 340 329
344 337 316 246 196 186 199 200 143 143 256 272 341 495 551 577 590 589 554 490 354 218 231 269 237 212 194 221 165 188 176 160 178 179 201 222 204 182 159 185 232 238 263 301 380 375 386 328 343
357 185 201 205 260 248 222 210 203 223 238 383 435 482 476 549 605 621 764 725 528 335 321 330 327 273 202 223 272 208 185 194 194 216 200 254 261 246 208 234 279 216 273 317 202 262 275 290 265
182 208 181 199 228 202 171 194 240 343 303 371 489 504 577 586 624 707 714 789 771 490 341 283 311 281 256 227 299 347 427 240 220 218 224 258 276 273 288 309 271 207 261 217 260 323 312 381 369
313 318 262 194 172 220 239 188 471 463 424 568 587 569 567 664 671 695 757 842 815 700 597 385 332 344 298 273 293 264 403 485 420 279 242 252 248 272 353 329 248 230 218 292 310 298 385 370 277
268 268 249 160 231 220 202 321 524 516 504 591 646 641 611 656 804 896 861 831 781 673 602 508 392 407 400 312 260 255 384 415 492 478 457 348 299 286 358 359 327 269 318 356 375 369 361 449 460
245 274 184 105 198 186 196 360 431 528 579 699 724 739 702 726 773 783 823 750 670 580 526 489 403 404 405 335 262 230 299 362 379 519 612 579 458 370 356 381 362 335 358 397 418 489 467 442 500
137 159 211 83 118 62 147 358 395 404 555 656 718 737 710 671 689 713 723 672 630 600 518 486 420 370 335 329 294 253 295 282 235 417 619 654 532 493 384 401 387 368 388 388 410 479 501 539 478
89 96 77 22 81 145 221 326 411 420 462 544 616 652 644 598 616 630 636 643 604 556 491 442 397 357 304 233 285 190 182 187 269 217 216 438 534 586 404 476 415 431 465 443 455 472 533 514 429
87 107 75 95 54 130 253 278 225 370 481 479 507 504 559 539 537 553 533 501 462 473 459 321 292 257 252 291 221 187 218 238 215 228 243 243 328 333 419 537 501 454 431 407 433 458 473 483 455
143 184 113 64 77 128 211 207 250 295 362 491 535 557 490 524 485 437 441 452 470 471 377 342 309 276 243 252 248 235 205 223 313 332 278 310 241 255 305 536 600 424 584 399 342 375 448 510 482
97 76 157 122 173 164 154 177 233 317 331 363 467 527 502 464 367 375 363 336 384 409 392 422 411 391 358 267 279 257 267 243 227 323 293 346 335 352 330 197 286 277 376 441 450 360 457 392 477
65 43 40 93 87 149 127 198 163 270 361 467 463 507 400 397 410 446 405 381 443 473 489 452 452 474 483 421 346 332 341 306 284 294 308 281 351 416 435 244 235 247 263 373 331 408 458 514 444
73 59 65 71 180 116 73 119 208 307 341 386 368 408 462 464 462 438 456 450 432 489 492 425 474 500 510 480 503 381 390 411 376 285 341 330 295 409 427 333 391 288 183 327 394 225 200 413 455
70 119 73 64 125 110 205 182 196 338 344 368 444 367 400 431 428 431 456 478 488 462 458 464 469 480 499 490 489 467 405 367 351 440 436 268 288 330 358 353 339 469 274 237 373 347 70 208 221
-86 1 72 80 100 98 191 252 227 205 218 253 300 329 361 406 460 504 516 530 536 521 499 484 479 486 490 463 451 462 459 413 372 365 394 332 307 284 286 277 354 278 320 357 262 192 180 201 293
30 -12 -63 230 192 176 246 225 165 165 307 317 381 402 393 423 455 501 506 495 473 457 454 445 430 417 398 397 407 399 408 412 405 385 374 379 364 335 352 255 295 274 299 239 250 255 217 200 211
5 14 17 -3 237 189 162 172 148 225 224 257 301 364 400 400 404 408 406 372 367 369 406 385 385 376 387 360 350 353 352 349 345 356 372 365 329 361 360 353 266 253 211 298 238 232 208 225 164
-113 40 -17 101 394 359 182 190 228 300 255 234 265 276 292 292 293 285 294 299 311 303 312 334 326 303 300 274 263 280 292 302 309 311 307 301 308 321 313 332 343 343 337 298 250 234 249 236 194
Wind_Speed
14 22 23 24 28 30 27 29 17 23 17 12 20 27 31 48 33 35 26 10 15 14 16 17 15 15 15 14 13 13 12 12 14 11 3 5 13 13 14 11 11 18 23 25 22 21 22 21 23
14 16 24 30 33 26 34 24 21 16 14 40 36 42 31 15 29 25 15 10 11 11 13 16 17 13 11 11 11 11 10 8 8 12 8 6 9 15 17 18 13 12 15 17 20 19 18 19 20
16 23 25 36 42 35 46 35 23 25 20 30 46 29 39 27 26 17 23 3 5 7 7 8 13 11 11 12 11 10 10 8 5 8 10 9 9 13 21 20 17 17 12 13 16 17 17 18 18
23 31 41 42 37 34 32 40 38 37 42 36 36 67 43 29 25 13 9 3 6 4 2 7 7 5 9 9 10 9 9 8 6 6 7 10 9 13 22 24 22 20 17 15 15 17 18 18 20
33 41 53 57 48 60 46 29 41 55 56 50 50 49 49 39 32 11 3 3 5 8 2 6 7 5 4 5 8 8 6 6 7 6 6 6 9 12 18 24 25 21 20 18 18 19 19 20 22
39 44 62 71 72 69 63 42 50 51 57 63 63 74 66 42 25 12 6 7 6 5 5 6 6 6 6 5 3 5 6 6 6 9 10 10 10 12 16 22 24 23 23 22 21 20 20 21 22
47 57 68 73 73 67 52 51 54 56 60 60 53 66 58 39 29 20 17 15 15 13 8 9 13 10 10 9 9 5 5 4 6 7 10 18 17 15 16 23 25 28 27 27 24 24 23 23 20
46 62 73 68 68 79 57 56 55 54 61 54 45 60 61 42 22 20 25 23 23 24 20 14 16 19 18 19 16 14 14 9 7 9 12 17 22 27 21 19 25 27 29 31 30 27 25 23 18
42 69 77 67 66 65 51 54 54 52 60 54 47 46 43 20 18 24 27 29 27 29 31 28 24 26 25 25 24 19 18 16 12 12 11 11 19 23 30 30 26 29 34 33 33 30 27 19 18
48 73 77 67 65 69 62 66 64 62 59 54 48 42 27 23 24 26 30 31 33 33 34 38 37 35 33 31 28 26 23 22 20 17 13 14 15 18 22 27 31 32 40 36 33 30 26 21 19
62 87 69 70 67 67 69 65 53 55 58 52 52 38 35 35 37 36 36 35 34 34 37 36 39 39 39 36 33 31 27 26 23 20 16 13 13 14 19 19 18 21 15 33 36 33 28 25 25
81 80 77 72 64 65 67 66 67 60 58 43 40 33 34 37 40 42 44 48 45 39 42 44 43 43 45 41 36 32 29 28 28 24 18 13 13 11 11 11 5 4 10 28 33 31 24 24 24
84 79 73 74 75 76 71 72 69 58 45 37 32 33 36 36 39 42 45 46 46 44 41 41 44 45 48 48 41 36 34 31 29 28 22 17 14 10 7 4 3 2 8 15 18 25 25 25 24
72 86 90 85 79 73 74 76 64 57 45 44 41 40 40 41 43 43 44 48 46 44 44 42 44 46 47 50 47 43 35 34 32 31 29 23 18 16 12 6 5 11 17 9 11 24 20 18 21
81 99 93 85 75 78 69 86 77 66 49 48 45 43 43 46 46 46 47 47 48 43 43 43 44 46 46 45 46 47 43 38 35 35 32 29 26 21 18 13 11 12 13 15 27 20 22 23 28
78 82 103 85 76 77 62 97 68 59 55 56 50 47 47 48 50 50 49 49 47 45 45 45 43 45 45 45 44 44 43 40 41 42 37 34 29 25 24 20 18 13 12 17 24 17 33 15 14
91 111 103 95 70 63 65 88 64 56 53 54 53 49 48 49 51 51 48 48 44 43 46 48 48 47 49 47 40 42 38 40 42 40 41 40 35 31 30 27 23 19 17 18 19 18 20 19 15
99 99 101 110 75 71 67 66 55 51 48 49 50 51 50 50 51 50 47 45 42 41 43 46 48 48 50 51 46 43 46 45 45 41 40 43 42 38 37 33 28 24 23 22 23 24 20 21 18
85 98 101 84 66 63 66 56 54 50 48 49 49 50 49 47 45 45 42 41 42 42 43 47 48 49 48 51 56 54 53 52 46 45 41 45 46 41 41 40 37 32 31 30 29 28 30 22 24
76 88 93 97 84 79 60 58 56 55 53 50 49 48 49 46 43 43 42 40 40 42 44 46 47 48 47 47 50 53 53 49 53 50 36 38 38 44 42 41 43 40 38 37 37 37 32 30 29
68 72 74 76 89 66 58 73 67 54 51 50 50 49 47 47 44 41 39 39 40 40 42 42 43 43 45 48 50 52 50 54 59 56 55 48 46 47 47 43 45 41 46 45 44 42 41 39 39
79 59 71 79 79 81 65 78 68 58 53 52 51 47 45 43 37 34 34 36 39 41 40 41 41 41 42 43 45 49 53 56 55 56 55 51 51 46 39 50 47 53 48 51 51 47 49 48 47
73 78 68 73 75 89 78 73 62 49 62 53 48 45 40 38 34 32 34 36 40 42 42 43 43 42 42 39 39 40 44 44 48 50 47 53 54 50 47 48 49 53 51 57 51 56 57 56 53
82 77 64 67 75 74 73 64 60 54 53 43 43 39 37 36 34 33 33 36 39 38 38 37 38 38 40 39 37 38 41 42 45 50 51 50 53 57 53 56 51 50 54 51 56 64 57 57 59
68 71 69 60 59 63 58 55 60 41 34 33 35 35 35 33 31 29 33 35 34 35 36 35 35 36 36 36 35 35 36 40 40 44 46 49 51 54 51 52 54 50 55 53 63 65 60 62 64
85 76 77 64 54 61 55 61 57 34 27 22 23 25 26 27 27 27 30 30 32 32 33 33 32 32 33 32 32 32 33 34 36 42 40 41 47 52 46 51 53 54 55 50 54 65 64 64 66
74 91 95 104 82 66 54 48 42 28 24 24 21 18 21 22 24 26 28 29 31 32 32 33 32 31 32 31 30 30 30 31 33 35 37 43 42 48 43 51 50 51 56 57 54 56 61 60 67
74 70 72 51 67 64 58 48 46 32 30 26 25 26 24 23 24 26 27 28 29 30 30 30 28 28 29 29 29 29 29 29 30 32 35 37 41 42 44 48 45 52 52 50 53 57 62 59 59
59 59 60 65 52 55 47 48 36 23 15 17 23 23 21 21 22 23 24 25 26 27 28 28 28 27 28 29 29 29 30 30 29 30 33 35 36 38 40 44 48 47 48 48 49 53 51 55 58
32 47 50 52 53 46 43 44 18 9 11 11 16 17 18 20 21 23 23 24 25 27 27 28 28 28 29 29 29 29 30 31 31 32 33 34 36 38 38 39 40 45 49 50 51 51 52 56 58
Wind_Direction
325 330 327 321 312 311 301 300 299 316 323 296 296 306 304 302 309 313 332 77 27 88 114 129 122 114 103 99 110 121 128 129 130 133 188 240 257 252 247 223 167 139 137 127 127 124 125 119 115
327 330 322 312 294 272 300 287 260 268 261 306 312 301 303 300 308 319 346 10 44 79 108 126 128 119 111 105 113 123 132 140 146 142 152 196 235 249 246 242 223 170 149 144 137 132 133 129 127
328 317 305 299 287 254 294 303 281 289 279 297 301 305 300 300 302 312 311 19 27 71 95 124 131 123 119 117 116 128 137 151 172 159 152 168 215 232 244 243 232 223 206 172 159 150 146 142 140
313 304 301 283 259 267 269 297 303 304 303 297 295 285 300 293 294 296 312 291 314 324 137 152 146 128 128 123 119 127 139 150 175 190 175 158 191 220 241 241 236 222 213 201 180 161 158 156 151
303 300 288 286 274 289 289 270 294 292 295 293 290 290 297 293 291 289 232 241 274 303 258 195 186 180 171 149 134 135 150 168 182 222 219 205 187 218 229 241 237 217 209 201 188 173 164 161 160
288 294 285 284 286 289 288 292 298 292 291 287 284 280 285 296 289 281 278 263 260 248 260 241 216 213 220 233 213 162 157 179 225 246 247 244 236 215 227 233 230 214 206 200 191 183 175 166 166
280 283 281 283 286 287 287 295 288 288 286 286 289 283 286 284 288 286 287 286 286 279 259 258 255 254 253 247 256 244 228 215 232 249 252 263 257 248 240 243 231 220 211 202 193 183 175 169 177
281 286 282 281 284 287 293 290 291 285 286 291 290 283 280 278 274 283 285 284 282 282 277 267 265 267 265 262 260 265 271 266 256 268 269 268 264 266 256 236 230 218 207 205 192 181 175 174 192
283 280 276 275 282 284 300 290 292 289 289 291 287 287 287 270 268 273 276 279 279 282 280 276 273 270 266 260 265 266 270 275 274 273 268 267 274 273 274 268 244 221 215 202 195 185 180 181 199
267 274 275 286 282 288 286 286 288 289 288 285 283 285 281 273 265 264 266 268 271 274 279 279 277 275 267 261 260 265 270 272 276 281 278 276 272 278 280 285 274 238 213 188 193 185 191 199 201
271 268 277 280 280 284 285 286 288 288 281 282 280 273 275 276 278 276 275 273 272 272 276 280 281 279 267 261 258 261 264 265 267 274 280 280 277 274 290 287 286 270 178 204 204 203 208 203 213
275 272 272 279 281 281 281 284 282 280 281 286 287 283 275 277 277 278 276 275 275 278 280 278 280 279 273 263 257 254 255 258 260 264 266 261 270 271 284 290 334 346 239 221 216 206 192 199 210
269 273 277 277 274 274 278 277 279 280 279 283 281 284 280 279 280 282 281 282 281 277 281 284 280 280 276 270 259 252 254 254 255 256 253 248 254 246 260 295 262 156 231 190 192 202 207 208 214
286 278 275 276 278 278 274 275 274 279 275 275 273 274 278 278 281 281 285 285 284 280 282 286 283 281 279 272 268 256 252 252 252 250 248 242 240 239 243 233 164 146 155 199 217 219 225 210 201
279 281 281 276 277 275 274 272 266 275 269 269 269 270 273 278 282 282 284 285 286 285 285 286 284 283 278 278 267 266 263 257 251 249 244 244 241 234 228 215 199 180 176 169 219 218 217 200 207
290 283 278 282 274 272 266 270 273 272 264 264 265 267 270 275 278 282 284 285 287 285 285 287 287 283 279 277 270 267 265 260 262 258 245 241 237 231 224 210 196 189 177 178 208 162 214 181 175
280 279 279 284 282 282 258 268 273 274 266 262 265 266 268 273 278 283 284 285 288 288 284 284 283 282 277 274 274 265 263 266 260 263 257 250 239 229 220 219 208 204 191 192 187 170 168 178 166
281 280 281 278 282 278 274 268 275 276 270 267 267 268 268 270 274 281 285 286 290 292 290 287 284 282 277 273 268 268 265 265 268 262 257 257 248 240 228 224 216 212 208 202 203 194 185 177 170
282 279 281 282 294 276 276 270 272 274 273 270 273 272 271 271 277 281 287 289 290 293 292 290 286 283 279 271 264 265 262 260 262 265 258 263 254 247 237 232 224 223 214 206 199 193 178 187 173
283 281 279 282 278 276 276 271 271 270 270 270 270 272 270 272 276 282 287 292 294 294 294 292 288 284 279 273 268 266 262 261 260 261 268 263 259 254 240 239 235 231 227 217 206 198 206 216 200
287 282 281 280 277 281 272 271 266 269 267 268 268 269 271 271 275 281 287 292 294 296 296 296 293 290 284 276 269 265 266 262 260 262 263 265 258 265 256 248 242 231 234 222 214 208 213 211 229
288 282 281 281 280 273 265 272 268 264 263 264 266 270 273 277 281 285 290 294 296 296 297 296 298 295 290 284 273 265 261 259 262 259 262 265 262 265 260 261 256 233 239 233 234 221 227 219 219
291 289 280 278 274 270 266 274 275 262 262 261 265 268 275 278 282 287 292 297 300 298 297 296 295 295 292 290 281 272 263 262 262 260 262 262 264 266 267 260 250 255 248 240 243 242 240 236 230
289 286 284 280 273 269 270 258 271 267 262 261 263 270 274 281 284 289 297 308 308 309 306 304 299 298 296 290 285 279 271 266 263 264 262 266 268 264 265 262 257 260 248 256 245 249 246 249 243
285 281 282 274 264 275 269 264 268 277 274 261 263 270 276 285 290 300 308 312 306 310 308 305 302 301 306 300 293 286 280 274 271 269 268 266 267 266 264 264 262 261 260 261 250 252 254 252 248
276 276 273 273 270 275 271 268 269 279 283 286 283 280 286 293 300 308 314 310 310 311 312 313 311 310 310 309 304 299 294 285 279 274 276 269 267 267 273 272 268 268 263 267 261 255 252 254 252
279 269 264 262 266 274 272 274 279 279 278 277 282 294 297 302 306 308 316 318 320 321 320 316 316 317 317 311 315 313 307 301 287 283 278 273 278 272 275 274 272 269 268 270 267 257 256 257 255
269 276 274 258 256 260 264 270 272 256 265 271 279 282 290 302 308 315 319 325 326 321 320 326 322 326 326 323 318 317 320 314 308 298 288 285 283 283 276 276 278 275 278 275 272 269 261 264 264
282 268 274 276 254 254 262 271 282 260 271 275 276 282 299 305 315 318 323 319 318 320 325 328 332 330 329 328 325 322 321 324 319 313 306 297 292 290 288 283 277 280 279 280 277 272 272 267 263
330 284 279 265 262 267 265 276 295 280 275 285 286 295 300 295 310 305 306 312 315 317 320 323 324 327 327 327 328 326 325 325 323 319 318 313 305 300 296 294 293 286 281 280 281 278 275 272 270